Weather History for GMTN - September, 2012

Change the Weather History Date:

Sunday, September 23, 2012

  Actual Average Record
Temperature  
Mean Temperature 73 °F -  
Max Temperature 85 °F 73 °F 85 °F (2012)
Min Temperature 61 °F 62 °F 61 °F (2012)
Cooling Degree Days 8    
Growing Degree Days 23 (Base 50)    
Moisture  
Dew Point 64 °F    
Average Humidity 78    
Maximum Humidity 100    
Minimum Humidity 36    
Precipitation  
Precipitation 0.00 in - - ()
Sea Level Pressure  
Sea Level Pressure 29.99 in    
Wind  
Wind Speed 4 mph ()    
Max Wind Speed 20 mph    
Max Gust Speed -    
Visibility 2.1 miles    
Events Fog    
Averages and records for this station are not official NWS values.
T = Trace of Precipitation, MM = Missing Value Source: Averaged Metar Reports

Daily Weather History Graph

Daily Weather History Graph

Search for Another Location

Airport or City:

Trip Planner

Search our weather history database for the weather conditions in past years. The results will help you decide how hot, cold, wet, or windy it might be!

Date:

Astronomy

Sep. 23, 2012 Rise Set
Actual Time 7:10 AM WEST 7:16 PM WEST
Civil Twilight 6:44 AM WEST 7:41 PM WEST
Nautical Twilight 6:15 AM WEST 8:11 PM WEST
Astronomical Twilight 5:45 AM WEST 8:41 PM WEST
Moon 2:55 PM WEST (9/23) 12:19 AM WEST (9/23)
Length of Visible Light 12h 56m
Length of Day
12h 06m
First Quarter, 57% of the Moon is Illuminated
Sep 23
First Quarter
Sep 30
Full
Oct 8
Last Quarter
Oct 15
New
Oct 22
First Quarter

Hourly Weather History & Observations

Time (WEST) Temp. Heat Index Dew Point Humidity Pressure Visibility Wind Dir Wind Speed Gust Speed Precip Events Conditions
12:00 AM 66.2 °F - 64.4 °F 94% 29.95 in 1.6 mi North 3.5 mph - N/A   Unknown
1:00 AM 65 °F - 64 °F 93% 29.98 in 2 mi ESE 1.2 mph - -  
1:00 AM 66.2 °F - 64.4 °F 94% 29.95 in 1.7 mi Variable 1.2 mph - N/A   Unknown
2:00 AM 64.4 °F - 62.6 °F 94% 29.95 in 1.0 mi Variable 2.3 mph - N/A   Unknown
3:00 AM 62.6 °F - 60.8 °F 94% 29.95 in 1.3 mi NNW 2.3 mph - N/A   Unknown
4:00 AM 64 °F - 63 °F 95% 29.97 in 0 mi Calm Calm - -  
4:00 AM 64.4 °F - 62.6 °F 94% 29.95 in 0.1 mi Calm Calm - N/A   Unknown
5:00 AM 64.4 °F - 62.6 °F 94% 29.95 in 0.1 mi ESE 1.2 mph - N/A   Unknown
6:00 AM 64.4 °F - 62.6 °F 94% 29.98 in 0.1 mi Variable 2.3 mph - N/A   Unknown
7:00 AM 64 °F - 63 °F 97% 29.99 in 0 mi Calm Calm - -  
7:00 AM 64.4 °F - 62.6 °F 94% 29.98 in 0.2 mi Calm Calm - N/A   Unknown
8:00 AM 64.4 °F - 64.4 °F 100% 29.98 in 0.2 mi Calm Calm - N/A Fog Fog
9:00 AM 64.4 °F - 64.4 °F 100% 29.98 in 0.2 mi WSW 1.2 mph - N/A Fog Fog
10:00 AM 66 °F - 66 °F 98% 30.02 in 0 mi NE 2.3 mph - - Fog Partial Fog
10:00 AM 66.2 °F - 66.2 °F 100% 30.01 in 0.5 mi Variable 2.3 mph - N/A Fog Fog
11:00 AM 69.8 °F - 68.0 °F 94% 30.01 in 1.2 mi Variable 2.3 mph - N/A   Scattered Clouds
12:00 PM 75.2 °F - 66.2 °F 73% 29.98 in 3.1 mi East 8.1 mph - N/A   Scattered Clouds
1:00 PM 75 °F - 66 °F 67% 30.00 in 4 mi East 9.2 mph - -  
1:00 PM 75.2 °F - 66.2 °F 73% 29.98 in 3.1 mi East 9.2 mph - N/A   Scattered Clouds
2:00 PM 75.2 °F - 66.2 °F 73% 29.98 in 4.3 mi ENE 8.1 mph - N/A   Scattered Clouds
3:00 PM 78.8 °F - 64.4 °F 61% 29.98 in 4.3 mi East 6.9 mph - N/A   Scattered Clouds
4:00 PM 80 °F - 64 °F 48% 29.96 in 4 mi ENE 6.9 mph - -   Partly Cloudy
4:00 PM 80.6 °F 81.8 °F 62.6 °F 54% 29.95 in 4.3 mi ENE 6.9 mph - N/A   Scattered Clouds
6:00 PM 86.0 °F 85.4 °F 59.0 °F 40% 29.98 in 4.3 mi West 16.1 mph - N/A   Scattered Clouds
7:00 PM 81 °F - 58 °F 36% 29.99 in 4 mi West 19.6 mph - -   Partly Cloudy
7:00 PM 80.6 °F 81.1 °F 59.0 °F 48% 29.98 in 4.3 mi West 19.6 mph - N/A   Scattered Clouds
8:00 PM 78.8 °F - 62.6 °F 57% 30.01 in 4.3 mi West 17.3 mph - N/A   Scattered Clouds
9:00 PM 77.0 °F - 64.4 °F 65% 30.04 in 3.1 mi WSW 9.2 mph - N/A   Scattered Clouds
10:00 PM 77 °F - 65 °F 59% 30.06 in 3 mi West 15.0 mph - -  
10:00 PM 77.0 °F - 66.2 °F 69% 30.04 in 2.8 mi West 15.0 mph - N/A   Unknown
11:00 PM 77.0 °F - 66.2 °F 69% 30.04 in 2.8 mi West 15.0 mph - N/A   Unknown